User: anonymous   Login
Location: Bovenkerk
(52.2915°N, 4.8336°E)
Time: 00:35:10
(UTC+00:00)
Language:

STARLINK-1200 - Orbit

View from above orbital plane
View from above orbital plane
View from above satellite
View from above satellite

Ground track
Ground track

The orbit data is extracted from the following two-line orbital elements,

1 45181U 20012D   20188.83334491  .00026894  00000-0  18572-2 0  9992
2 45181  52.9986 347.5426 0001381 103.3597 275.9218 15.05594611 21927
Epoch (UTC): 06 July 2020 20:00:01
Eccentricity: 0.0001381
inclination: 52.9986°
perigee height: 549 km
apogee height: 550 km
right ascension of ascending node: 347.5426°
argument of perigee: 103.3597°
revolutions per day: 15.05594611
mean anomaly at epoch: 275.9218°
orbit number at epoch: 2192

The dashed part of the orbit path shows where the satellite is in the earth's shadow,  

DLR